Flag for India Weather past 2 weeks in Wardha, Maharashtra, India

Now
113 °F

Clear.


Feels Like: 111 °F
Forecast: 92 / 109 °F
Wind: 6 mph from Northeast

Location: Nagpur Sonegaon

Current Time: May 28, 2015 at 12:32:41 PM

Latest Report: May 28, 2015 at 11:40 AM


Visibility: 4 mi

Pressure: 29.65 "Hg

Humidity: 14%

Dew point: 54 °F

Location of WardhaLocation

Historic Weather in Wardha — Graph

°F

Wardha temperature yesterday

Maximum temperature yesterday: 115 °F (at 1:10 PM)
Minimum temperature yesterday: 84 °F (at 2:40 AM)
Average temperature yesterday: 102 °F

Past Weeks' High & Low Weather Summary

 TemperatureHumidityPressure
High118 °F (May 19, 2:40 PM)89% (May 15, 5:10 PM)29.92 "Hg (May 15, 5:10 PM)
Low72 °F (May 15, 2:40 PM)8% (May 19, 5:10 PM)29.50 "Hg (May 19, 4:10 PM)
Average98 °F35%29.67 "Hg
* Reported May 13 10:40 AM — May 28 11:10 AM, Wardha, Weather by CustomWeather, © 2015

Note: Actual official high and low records may vary slightly from our data, if they occured in-between our weather recording intervals... More about our weather records

Advertising

Wardha weather history for previous 24 hours

 ConditionsComfort  
Time TempWeatherWind HumidityBarometerVisibility
11:10 AM
Thu, May 28
111 °FClear.9 mph16%29.68 "Hg4 mi
10:40 AM108 °FClear.7 mph18%29.68 "Hg4 mi
10:10 AM106 °FClear.9 mph19%29.71 "Hg4 mi
9:40 AM104 °FClear.9 mph24%29.71 "Hg4 mi
8:40 AM99 °FClear.10 mph29%29.71 "Hg4 mi
8:10 AM97 °FClear.10 mph30%29.71 "Hg4 mi
7:40 AM95 °FClear.12 mph30%29.68 "Hg4 mi
7:10 AM93 °FClear.9 mph32%29.68 "Hg4 mi
6:40 AM90 °FHaze.6 mph31%29.68 "Hg3 mi
6:10 AM90 °FHaze.6 mph31%29.68 "Hg3 mi
5:40 AM90 °FHaze.8 mph31%29.65 "Hg2 mi
5:10 AM91 °FHaze.10 mph28%29.62 "Hg2 mi
4:40 AM88 °FHaze.6 mph31%29.62 "Hg2 mi
4:10 AM90 °FHaze.6 mph29%29.62 "Hg2 mi
3:40 AM90 °FHaze.3 mph31%29.62 "Hg2 mi
3:10 AM91 °FHaze.3 mph30%29.62 "Hg3 mi
2:40 AM93 °FHaze.5 mph28%29.62 "Hg3 mi
2:10 AM91 °FHaze.3 mph32%29.62 "Hg3 mi
1:40 AM93 °FHaze.6 mph30%29.62 "Hg3 mi
1:10 AM91 °FHaze.5 mph32%29.62 "Hg3 mi
12:40 AM93 °FHaze.6 mph30%29.62 "Hg3 mi
12:10 AM91 °FHaze.2 mph36%29.62 "Hg3 mi
11:40 PM
Wed, May 27
93 °FHaze.5 mph34%29.62 "Hg3 mi
11:10 PM95 °FHaze.5 mph30%29.62 "Hg3 mi
10:10 PM99 °FHaze.5 mph27%29.62 "Hg3 mi
9:40 PM99 °FPassing clouds.3 mph27%29.62 "Hg3 mi
9:10 PM100 °FPassing clouds.5 mph24%29.62 "Hg3 mi
8:40 PM100 °FHaze.6 mph24%29.62 "Hg3 mi
8:10 PM100 °FHaze.3 mph25%29.62 "Hg3 mi
7:40 PM102 °FHaze.6 mph24%29.59 "Hg3 mi
7:10 PM104 °FPassing clouds.9 mph23%29.59 "Hg3 mi
6:40 PM109 °FPassing clouds.14 mph17%29.59 "Hg3 mi
6:10 PM111 °FScattered clouds.13 mph16%29.56 "Hg3 mi
5:40 PM113 °FScattered clouds.12 mph15%29.56 "Hg3 mi
3:40 PM115 °FPassing clouds.10 mph15%29.56 "Hg4 mi
3:10 PM115 °FPassing clouds.9 mph15%29.59 "Hg4 mi
2:40 PM115 °FPassing clouds.7 mph15%29.59 "Hg4 mi
2:10 PM115 °FPassing clouds.12 mph16%29.62 "Hg4 mi
1:40 PM115 °FScattered clouds.6 mph15%29.62 "Hg4 mi
1:10 PM115 °FScattered clouds.10 mph16%29.65 "Hg4 mi
12:40 PM113 °FPassing clouds.6 mph20%29.65 "Hg4 mi
12:10 PM111 °FPassing clouds.7 mph24%29.68 "Hg4 mi
Weather by CustomWeather, © 2015

See weather overviewHow to use our weather pages